Printer-friendly version

IAU Minor Planet Center

Minor Planet Center

MPEC 2006-C57 : 2006 CY10

The following Minor Planet Electronic Circular may be linked-to from your own Web pages, but must not otherwise be redistributed electronically.


Read MPEC 2006-C56 Read MPEC 2006-C58


M.P.E.C. 2006-C57                                Issued 2006 Feb. 10, 02:59 UT

     The Minor Planet Electronic Circulars contain information on unusual
         minor planets and routine data on comets.  They are published
   on behalf of Commission 20 of the International Astronomical Union by the
          Minor Planet Center, Smithsonian Astrophysical Observatory,
                          Cambridge, MA 02138, U.S.A.

                  Supported in part by the Brinson Foundation
                  Supported in part by the TABASGO Foundation
             Prepared using the Tamkin Foundation Computer Network

                              MPC@CFA.HARVARD.EDU
          URL http://cfa-www.harvard.edu/iau/mpc.html  ISSN 1523-6714

                                   2006 CY10

Observations:
     K06C10Y* C2006 02 09.34496 12 51 54.39 +28 31 59.3          18.3 R EC057699
     K06C10Y  C2006 02 09.37239 12 52 02.98 +28 31 48.0                 EC057699
     K06C10Y  C2006 02 09.39986 12 52 11.48 +28 31 37.0                 EC057699
     K06C10Y  C2006 02 09.42731 12 52 19.97 +28 31 24.2                 EC057699
     K06C10Y  C2006 02 10.00814 12 55 30.18 +28 26 29.5                 EC057595
     K06C10Y  C2006 02 10.02108 12 55 34.54 +28 26 17.7                 EC057J95
     K06C10Y  C2006 02 10.02300 12 55 35.15 +28 26 17.2                 EC057J95
     K06C10Y  C2006 02 10.02480 12 55 35.49 +28 26 21.3          19.3 V EC057595
     K06C10Y  C2006 02 10.02509 12 55 35.82 +28 26 16.2          18.9 R EC057J95

Observer details:
595 Farra d'Isonzo.  Observers M. Spolaor, E. Pettarin.  Measurer M. Spolaor.
    0.40-m f/4.5 reflector + CCD.
699 Lowell Observatory-LONEOS.  Observer B. W. Koehn.  0.59-m LONEOS Schmidt
    + CCD.
J95 Great Shefford.  Observer P. Birtwhistle.  0.40-m f/6.0 Schmidt-Cassegrain
    + CCD.

Orbital elements:
2006 CY10                                                Earth MOID = 0.0550 AU
Epoch 2006 Mar. 6.0 TT = JDT 2453800.5                  MPC
M 352.75240              (2000.0)            P               Q
n   0.37329506     Peri.  151.65048     -0.97467035     +0.21251723
a   1.9102985      Node    40.81168     -0.22000185     -0.85506499
e   0.4547543      Incl.    6.11940     -0.04021052     -0.47296965
P   2.64           H   20.3           G   0.15           U   9
Residuals in seconds of arc
060209 699  0.2-  0.1-    060209 699  0.1-  0.2-    060210 J95  0.0   0.1+
060209 699  0.4+  0.2-    060210 595  0.0   0.2+    060210 595  0.3+  0.2-
060209 699  0.0   0.5+    060210 J95  0.0   0.2-    060210 J95  0.0   0.1+

Ephemeris:
2006 CY10                a,e,i = 1.91, 0.45, 6                   q = 1.0416
Date    TT    R. A. (2000) Decl.     Delta      r     Elong.  Phase     V
2006 02 04    12 24.67   +28 57.5    0.256    1.177   133.6    37.3    19.2
2006 02 14    13 18.23   +27 41.3    0.208    1.131   129.4    42.5    18.8
2006 02 24    14 22.43   +23 42.3    0.174    1.093   122.5    49.8    18.6
2006 03 06    15 31.82   +16 08.2    0.155    1.065   114.1    58.3    18.5
2006 03 16    16 37.31   +05 55.0    0.151    1.047   106.4    65.7    18.6
2006 03 26    17 32.35   -04 22.6    0.159    1.042   101.7    69.7    18.8
2006 04 05    18 15.20   -12 59.1    0.176    1.048   101.0    69.5    19.1
2006 04 15    18 46.99   -19 42.6    0.197    1.067   103.7    65.9    19.2
2006 04 25    19 08.95   -25 00.5    0.219    1.097   109.0    60.1    19.4
2006 05 05    19 21.40   -29 23.2    0.241    1.136   116.3    52.7    19.4
2006 05 15    19 24.58   -33 07.4    0.263    1.183   125.3    44.2    19.5
2006 05 25    19 18.81   -36 14.9    0.288    1.235   135.5    35.1    19.5
2006 06 04    19 05.41   -38 35.3    0.319    1.292   146.4    25.8    19.6
2006 06 14    18 47.74   -39 55.4    0.359    1.352   156.4    17.5    19.7
2006 06 24    18 29.95   -40 13.9    0.411    1.415   162.7    12.4    19.9
2006 07 04    18 15.71   -39 43.5    0.478    1.478   161.6    12.6    20.3
2006 07 14    18 06.96   -38 44.1    0.559    1.541   155.1    16.2    20.8
2006 07 24    18 03.77   -37 32.7    0.654    1.604   147.0    20.2    21.4
2006 08 03    18 05.51   -36 19.6    0.763    1.667   138.9    23.6    21.9

Timothy B. Spahr             (C) Copyright 2006 MPC           M.P.E.C. 2006-C57

Read MPEC 2006-C56 Read MPEC 2006-C58


Our Web policy. Index to the CBAT/MPC/ICQ pages.


Valid HTML 4.01!